Content
SEND FEEDBACK

Daily
Averages
Monthly
Summary
Croatia

PAZIN, CROATIA


Home > Europe > Croatia
Elevation: 312 feet     Latitude: 45 31N     Longitude: 013 34E

WEATHER
 
SELECT A DAY
Number of Records: 265,703;   Date Range: 1/10/97 - 7/26/14
 
SHARE

PRINT THIS DATA

[ ← Previous Day ]
WEATHER ALMANAC - OCTOBER 29, 2013
[ Next Day → ]
[ °C ]   °F
Weather ElementAverageHighLow
Temperature67.9 °F75.2 °F (12:00 pm)62.6 °F (10:00 pm)
Dewpoint56.8 °F62.6 °F (10:00 am)46.4 °F (10:30 pm)
Humidity68.3 %83 % (5:00 am)55 % (10:30 pm)
Barometer29.97 in29.98 in (12:30 am)29.95 in (4:00 am)
Wind Speed8.6 mph15 mph (1:00 pm)
Wind Gust24.2 mph (11:00 am)
Weather ElementAverage
Visibility6.2 mi
Wind DirectionSSE (145.3 °)

Weather ElementTotal
Precipitation---
Cooling Degree Days3.9 (Base 65)
Growing Degree Days18.9 (Base 50)
Averaged from 47 records on October 29, 2013
WEATHER CONDITIONS BREAKOUT
WIND DIRECTION BREAKOUT
WEATHER BY HOUR - OCTOBER 29, 2013
[ °C ]   °F
Local TimeTemperatureDewpointHumidityBarometerVisibilityWind DirectionWind SpeedGust SpeedPrecipitationEventsConditions
12:30 AM68.0 °F60.8 °F78 %29.98 in6.2 miSSE (160°)10.4 mphMostly Cloudy
1:00 AM68.0 °F60.8 °F78 %29.98 in6.2 miSouth (170°)9.2 mphScattered Clouds
1:30 AM66.2 °F59.0 °F78 %29.98 in6.2 miSouth (180°)10.4 mphScattered Clouds
2:00 AM66.2 °F59.0 °F78 %29.98 in6.2 miSouth (180°)9.2 mphMostly Cloudy
2:30 AM66.2 °F59.0 °F78 %29.98 in6.2 miSouth (170°)6.9 mphOvercast
3:00 AM66.2 °F59.0 °F78 %29.98 in6.2 miSSE (150°)8.1 mphMostly Cloudy
3:30 AM68.0 °F59.0 °F73 %29.98 in6.2 miSouth (170°)9.2 mphMostly Cloudy
4:00 AM68.0 °F59.0 °F73 %29.95 in6.2 miSouth (170°)9.2 mphMostly Cloudy
4:30 AM66.2 °F59.0 °F78 %29.95 in6.2 miSSE (150°)6.9 mphMostly Cloudy
5:00 AM64.4 °F59.0 °F83 %29.95 in6.2 miSE (140°)6.9 mphScattered Clouds
5:30 AM64.4 °F59.0 °F83 %29.95 in6.2 miSE (140°)6.9 mphPartly Cloudy
6:00 AM64.4 °F59.0 °F83 %29.95 in6.2 miSE (140°)8.1 mphPartly Cloudy
6:30 AM64.4 °F59.0 °F83 %29.95 in6.2 miSE (130°)10.4 mphPartly Cloudy
7:00 AM64.4 °F59.0 °F83 %29.98 inSE (130°)9.2 mphClear
7:30 AM64.4 °F59.0 °F83 %29.98 inSE (130°)9.2 mphClear
8:00 AM66.2 °F60.8 °F83 %29.98 inSE (140°)9.2 mphClear
8:30 AM68.0 °F60.8 °F78 %29.98 inSE (130°)10.4 mphClear
9:00 AM68.0 °F60.8 °F78 %29.98 in6.2 miSE (140°)6.9 mphMostly Cloudy
9:30 AM71.6 °F60.8 °F69 %29.98 in6.2 miSSE (150°)9.2 mphScattered Clouds
10:00 AM71.6 °F62.6 °F73 %29.98 in6.2 miSSE (150°)10.4 mphScattered Clouds
10:30 AM73.4 °F62.6 °F69 %29.98 in6.2 miSSE (160°)12.7 mphScattered Clouds
11:00 AM73.4 °F60.8 °F65 %29.98 inSSE (160°)11.5 mph24.2 mphClear
11:30 AM73.4 °F60.8 °F65 %29.98 in6.2 miSSE (150°)11.5 mphScattered Clouds
12:00 PM75.2 °F60.8 °F61 %29.95 in6.2 miSSE (160°)12.7 mphScattered Clouds
12:30 PM75.2 °F60.8 °F61 %29.98 in6.2 miSouth (170°)13.8 mphScattered Clouds
1:00 PM75.2 °F62.6 °F65 %29.95 in6.2 miSouth (170°)15.0 mphScattered Clouds
1:30 PM75.2 °F62.6 °F65 %29.95 in6.2 miSouth (170°)15.0 mphScattered Clouds
2:00 PM73.4 °F60.8 °F65 %29.98 in6.2 miSouth (170°)13.8 mphScattered Clouds
2:30 PM73.4 °F60.8 °F65 %29.98 in6.2 miSouth (170°)13.8 mphScattered Clouds
3:00 PM71.6 °F60.8 °F69 %29.95 inSSE (150°)12.7 mphClear
3:30 PM71.6 °F60.8 °F69 %29.95 inSSE (150°)8.1 mphClear
4:00 PM71.6 °F57.2 °F60 %29.95 inSE (140°)9.2 mphClear
4:30 PM69.8 °F55.4 °F60 %29.95 inSSE (150°)6.9 mphClear
5:00 PM68.0 °F53.6 °F60 %29.98 inESE (120°)6.9 mphClear
5:30 PM68.0 °F51.8 °F56 %29.98 inSE (140°)4.6 mphClear
6:00 PM64.4 °F50.0 °F59 %29.98 in6.2 miSE (130°)4.6 mphScattered Clouds
6:30 PM64.4 °F50.0 °F59 %29.98 in6.2 miSE (140°)3.5 mphScattered Clouds
7:00 PM66.2 °F50.0 °F56 %29.98 in6.2 miSSE (150°)4.6 mphMostly Cloudy
7:30 PM64.4 °F50.0 °F59 %29.98 in6.2 miVariable2.3 mphMostly Cloudy
8:00 PM64.4 °F48.2 °F56 %29.98 inSSE (160°)5.8 mphClear
8:30 PM64.4 °F48.2 °F56 %29.98 in6.2 miSouth (180°)5.8 mphScattered Clouds
9:00 PM64.4 °F48.2 °F56 %29.98 in6.2 miESE (110°)4.6 mphScattered Clouds
9:30 PM64.4 °F48.2 °F56 %29.98 in6.2 miSE (130°)6.9 mphScattered Clouds
10:00 PM62.6 °F48.2 °F59 %29.98 in6.2 miESE (110°)4.6 mphScattered Clouds
10:30 PM62.6 °F46.4 °F55 %29.98 in6.2 miESE (120°)6.9 mphPartly Cloudy
11:00 PM64.4 °F48.2 °F56 %29.98 in6.2 miESE (110°)5.8 mph
11:30 PM62.6 °F48.2 °F59 %29.98 in6.2 miSE (140°)3.5 mphPartly Cloudy
Hourly data recorded from LJPZ, located miles away from Pazin, Croatia







STORIES FROM OUR PARTNERS